�������l�o���
Date,Time,MP-1(��Sv/h),MP-2(��Sv/h),MP-3(��Sv/h),MP-4(��Sv/h),MP-5(��Sv/h),MP-6(��Sv/h),MP-7(��Sv/h),MP-8(��Sv/h),����,����(m/s),���J
2018/06/10,00:00,0.893,1.306,0.906,1.651,1.165,0.481,0.849,0.805,�k,3.5,�L
2018/06/10,00:10,0.889,1.303,0.906,1.653,1.166,0.481,0.848,0.807,�k,3.4,�L
2018/06/10,00:20,0.891,1.303,0.905,1.649,1.165,0.481,0.849,0.807,�k,3.0,�L
2018/06/10,00:30,0.891,1.300,0.904,1.649,1.165,0.481,0.849,0.808,�k,3.2,�L
2018/06/10,00:40,0.889,1.297,0.903,1.648,1.165,0.483,0.850,0.806,�k�k��,3.3,�L
2018/06/10,00:50,0.886,1.292,0.901,1.646,1.161,0.483,0.848,0.807,�k�k��,3.4,�L
2018/06/10,01:00,0.880,1.284,0.900,1.644,1.161,0.481,0.849,0.806,�k,3.8,�L
2018/06/10,01:10,0.874,1.274,0.899,1.645,1.156,0.480,0.845,0.806,�k��,3.5,�L
2018/06/10,01:20,0.877,1.274,0.896,1.639,1.154,0.480,0.847,0.805,�k��,2.9,�L
2018/06/10,01:30,0.876,1.270,0.893,1.636,1.151,0.480,0.845,0.805,�k�k��,3.2,�L
2018/06/10,01:40,0.874,1.270,0.895,1.633,1.147,0.479,0.843,0.802,�k��,3.5,�L
2018/06/10,01:50,0.873,1.264,0.893,1.630,1.147,0.480,0.842,0.801,�k�k��,4.0,�L
2018/06/10,02:00,0.873,1.259,0.888,1.623,1.144,0.479,0.841,0.802,�k��,4.3,�L
2018/06/10,02:10,0.871,1.257,0.888,1.623,1.144,0.478,0.842,0.802,�k��,4.8,�L
2018/06/10,02:20,0.869,1.256,0.884,1.615,1.139,0.477,0.840,0.801,�k��,4.4,�L
2018/06/10,02:30,0.870,1.254,0.883,1.609,1.137,0.478,0.838,0.800,�k��,3.7,�L
2018/06/10,02:40,0.870,1.253,0.882,1.609,1.135,0.477,0.837,0.797,�k��,5.1,�L
2018/06/10,02:50,0.870,1.252,0.882,1.606,1.132,0.478,0.837,0.799,�k��,4.5,�L
2018/06/10,03:00,0.869,1.254,0.881,1.605,1.134,0.477,0.837,0.797,�k��,4.5,�L
2018/06/10,03:10,0.870,1.254,0.880,1.607,1.130,0.478,0.837,0.799,���k��,5.7,�L
2018/06/10,03:20,0.869,1.254,0.880,1.605,1.131,0.477,0.837,0.799,���k��,5.5,�L
2018/06/10,03:30,0.870,1.256,0.880,1.603,1.132,0.477,0.839,0.800,���k��,5.3,�L
2018/06/10,03:40,0.870,1.255,0.882,1.604,1.133,0.477,0.840,0.801,���k��,5.3,�L
2018/06/10,03:50,0.868,1.256,0.880,1.602,1.133,0.478,0.838,0.802,�k��,5.4,��
2018/06/10,04:00,0.868,1.255,0.880,1.603,1.131,0.477,0.839,0.801,�k��,5.3,��
2018/06/10,04:10,0.869,1.256,0.879,1.604,1.133,0.476,0.840,0.799,�k��,5.8,�L
2018/06/10,04:20,0.871,1.258,0.880,1.604,1.133,0.477,0.841,0.800,���k��,4.9,�L
2018/06/10,04:30,0.868,1.257,0.878,1.602,1.132,0.476,0.838,0.800,�k��,3.9,�L
2018/06/10,04:40,0.870,1.258,0.880,1.604,1.133,0.475,0.840,0.800,���k��,5.2,��
2018/06/10,04:50,0.868,1.254,0.880,1.602,1.134,0.475,0.839,0.800,���k��,5.4,��
2018/06/10,05:00,0.870,1.254,0.880,1.601,1.130,0.475,0.839,0.799,��,5.9,��
2018/06/10,05:10,0.869,1.258,0.880,1.605,1.132,0.476,0.837,0.800,��,5.4,��
2018/06/10,05:20,0.869,1.256,0.877,1.602,1.133,0.475,0.838,0.799,��,4.9,��
2018/06/10,05:30,0.867,1.256,0.880,1.602,1.134,0.476,0.839,0.800,���k��,5.1,��
2018/06/10,05:40,0.866,1.258,0.880,1.604,1.134,0.475,0.840,0.801,��,4.9,�L
2018/06/10,05:50,0.868,1.257,0.878,1.603,1.134,0.476,0.839,0.800,���k��,4.8,�L
2018/06/10,06:00,0.870,1.258,0.878,1.605,1.132,0.475,0.841,0.801,��,5.1,��
2018/06/10,06:10,0.870,1.255,0.877,1.605,1.131,0.475,0.839,0.802,��,5.2,��
2018/06/10,06:20,0.870,1.254,0.880,1.606,1.131,0.476,0.836,0.799,��,5.3,��
2018/06/10,06:30,0.870,1.259,0.880,1.602,1.130,0.477,0.840,0.800,��,4.4,�L
2018/06/10,06:40,0.871,1.260,0.881,1.605,1.130,0.474,0.840,0.800,��,4.2,��
2018/06/10,06:50,0.869,1.260,0.881,1.604,1.128,0.475,0.841,0.801,��,5.5,�L
2018/06/10,07:00,0.869,1.259,0.881,1.602,1.130,0.476,0.839,0.800,��,5.8,�L
2018/06/10,07:10,0.868,1.259,0.880,1.605,1.128,0.476,0.838,0.800,��,5.7,�L
2018/06/10,07:20,0.866,1.257,0.881,1.603,1.131,0.475,0.837,0.797,��,5.7,�L
2018/06/10,07:30,0.868,1.254,0.880,1.605,1.131,0.475,0.839,0.797,��,6.2,�L
2018/06/10,07:40,0.868,1.251,0.881,1.603,1.129,0.476,0.840,0.797,��,6.9,�L
2018/06/10,07:50,0.868,1.254,0.881,1.601,1.129,0.476,0.836,0.797,��,6.3,�L
2018/06/10,08:00,0.867,1.254,0.880,1.603,1.130,0.475,0.837,0.799,��,6.5,�L
2018/06/10,08:10,0.868,1.252,0.877,1.603,1.130,0.476,0.839,0.799,��,6.5,��
2018/06/10,08:20,0.868,1.256,0.880,1.604,1.130,0.475,0.839,0.799,��,6.4,�L
2018/06/10,08:30,0.868,1.257,0.878,1.604,1.131,0.478,0.839,0.798,��,6.5,��
2018/06/10,08:40,0.867,1.258,0.881,1.604,1.129,0.475,0.838,0.800,��,5.9,��
2018/06/10,08:50,0.868,1.255,0.879,1.603,1.130,0.474,0.839,0.799,��,6.6,��
2018/06/10,09:00,0.869,1.255,0.880,1.606,1.132,0.476,0.839,0.801,���쓌,5.9,�L
2018/06/10,09:10,0.868,1.256,0.881,1.605,1.132,0.475,0.839,0.797,���쓌,6.5,�L
2018/06/10,09:20,0.868,1.257,0.883,1.603,1.131,0.474,0.839,0.798,���쓌,7.5,�L
2018/06/10,09:30,0.869,1.256,0.879,1.604,1.133,0.476,0.838,0.799,���쓌,7.5,�L
2018/06/10,09:40,0.870,1.259,0.880,1.605,1.131,0.476,0.840,0.797,���쓌,5.7,�L
2018/06/10,09:50,0.867,1.256,0.881,1.606,1.134,0.475,0.838,0.797,���쓌,8.4,�L
2018/06/10,10:00,0.868,1.257,0.882,1.602,1.130,0.477,0.840,0.799,���쓌,6.0,�L
2018/06/10,10:10,0.873,1.258,0.882,1.602,1.132,0.475,0.838,0.799,���쓌,6.0,�L
2018/06/10,10:20,0.871,1.258,0.880,1.604,1.132,0.476,0.838,0.799,���쓌,6.3,�L
2018/06/10,10:30,0.872,1.259,0.880,1.605,1.132,0.476,0.838,0.800,���쓌,6.3,�L
2018/06/10,10:40,0.873,1.258,0.879,1.605,1.131,0.479,0.839,0.798,���쓌,5.9,�L
2018/06/10,10:50,0.870,1.261,0.881,1.606,1.132,0.476,0.837,0.797,���쓌,7.2,�L
2018/06/10,11:00,0.870,1.258,0.883,1.605,1.128,0.476,0.837,0.798,��쓌,6.7,�L
2018/06/10,11:10,0.868,1.250,0.879,1.600,1.120,0.476,0.836,0.796,�쓌,5.3,�L
2018/06/10,11:20,0.866,1.247,0.879,1.601,1.118,0.474,0.836,0.794,�쓌,6.1,�L
2018/06/10,11:30,0.867,1.245,0.876,1.599,1.116,0.474,0.835,0.795,�쓌,5.9,�L
2018/06/10,11:40,0.864,1.241,0.874,1.599,1.114,0.473,0.833,0.795,�쓌,5.4,�L
2018/06/10,11:50,0.864,1.247,0.874,1.597,1.115,0.475,0.835,0.794,���쓌,6.1,�L
2018/06/10,12:00,0.866,1.244,0.875,1.599,1.116,0.475,0.834,0.794,�쓌,4.8,�L
2018/06/10,12:10,0.865,1.245,0.876,1.596,1.115,0.474,0.836,0.794,�쓌,6.2,�L
2018/06/10,12:20,0.866,1.245,0.875,1.597,1.115,0.474,0.834,0.797,�쓌,6.3,��
2018/06/10,12:30,0.866,1.247,0.875,1.599,1.117,0.473,0.834,0.795,���쓌,5.6,��
2018/06/10,12:40,0.866,1.247,0.876,1.600,1.115,0.474,0.833,0.798,�쓌,5.2,��
2018/06/10,12:50,0.862,1.248,0.875,1.599,1.115,0.474,0.833,0.797,���쓌,4.6,��
2018/06/10,13:00,0.866,1.247,0.877,1.596,1.112,0.473,0.836,0.798,���쓌,3.9,��
2018/06/10,13:10,0.866,1.252,0.876,1.595,1.115,0.473,0.837,0.796,���쓌,4.7,��
2018/06/10,13:20,0.865,1.249,0.876,1.597,1.115,0.474,0.836,0.796,���쓌,3.8,��
2018/06/10,13:30,0.865,1.248,0.876,1.598,1.116,0.473,0.837,0.797,���쓌,3.2,��
2018/06/10,13:40,0.866,1.248,0.876,1.599,1.117,0.471,0.835,0.797,���쓌,3.8,��
2018/06/10,13:50,0.864,1.250,0.875,1.596,1.117,0.472,0.836,0.797,���쓌,3.6,��
2018/06/10,14:00,0.868,1.248,0.876,1.595,1.116,0.472,0.836,0.796,���쓌,4.5,��
2018/06/10,14:10,0.865,1.248,0.877,1.600,1.117,0.472,0.836,0.796,��,4.3,��
2018/06/10,14:20,0.865,1.247,0.877,1.596,1.115,0.473,0.836,0.797,���쓌,4.7,��
2018/06/10,14:30,0.864,1.250,0.877,1.599,1.116,0.469,0.837,0.796,���쓌,5.0,��
2018/06/10,14:40,0.865,1.252,0.875,1.599,1.116,0.472,0.836,0.795,���쓌,5.8,��
2018/06/10,14:50,0.864,1.249,0.877,1.598,1.117,0.471,0.836,0.796,���쓌,5.7,��
2018/06/10,15:00,0.864,1.252,0.877,1.598,1.116,0.472,0.836,0.795,���쓌,5.6,��
2018/06/10,15:10,0.866,1.250,0.877,1.601,1.116,0.473,0.837,0.796,���쓌,6.0,��
2018/06/10,15:20,0.866,1.250,0.877,1.598,1.119,0.471,0.838,0.797,�쓌,7.1,��
2018/06/10,15:30,0.866,1.249,0.874,1.599,1.121,0.472,0.836,0.796,���쓌,5.7,��
2018/06/10,15:40,0.868,1.250,0.876,1.603,1.117,0.471,0.837,0.796,�쓌,7.1,��
2018/06/10,15:50,0.864,1.251,0.876,1.602,1.120,0.472,0.837,0.796,�쓌,7.1,��
2018/06/10,16:00,0.865,1.253,0.879,1.601,1.121,0.473,0.836,0.795,���쓌,7.1,��
2018/06/10,16:10,0.867,1.254,0.877,1.602,1.118,0.472,0.837,0.798,���쓌,8.3,��
2018/06/10,16:20,0.865,1.253,0.879,1.599,1.122,0.473,0.836,0.797,�쓌,7.0,�L
2018/06/10,16:30,0.866,1.253,0.880,1.604,1.121,0.472,0.838,0.798,�쓌,6.2,�L
2018/06/10,16:40,0.867,1.253,0.880,1.602,1.121,0.473,0.835,0.796,�쓌,5.5,�L
2018/06/10,16:50,0.867,1.252,0.878,1.603,1.120,0.473,0.836,0.797,���쓌,6.9,�L
2018/06/10,17:00,0.866,1.249,0.880,1.604,1.123,0.473,0.838,0.797,���쓌,7.3,�L
2018/06/10,17:10,0.869,1.253,0.878,1.603,1.120,0.473,0.838,0.799,�쓌,7.1,�L
2018/06/10,17:20,0.867,1.253,0.878,1.602,1.121,0.473,0.838,0.798,���쓌,6.8,�L
2018/06/10,17:30,0.867,1.256,0.878,1.603,1.120,0.472,0.839,0.799,���쓌,6.9,�L
2018/06/10,17:40,0.869,1.255,0.880,1.602,1.122,0.474,0.839,0.800,���쓌,7.7,�L
2018/06/10,17:50,0.868,1.253,0.880,1.601,1.122,0.475,0.839,0.798,���쓌,7.9,�L
2018/06/10,18:00,0.868,1.252,0.879,1.600,1.121,0.474,0.838,0.799,���쓌,7.1,�L
2018/06/10,18:10,0.870,1.255,0.879,1.603,1.121,0.475,0.837,0.800,�쓌,8.3,�L
2018/06/10,18:20,0.870,1.253,0.879,1.603,1.122,0.476,0.838,0.799,���쓌,7.2,�L
2018/06/10,18:30,0.866,1.254,0.880,1.602,1.120,0.476,0.837,0.798,�쓌,6.6,�L
2018/06/10,18:40,0.868,1.255,0.880,1.604,1.121,0.476,0.836,0.797,���쓌,6.4,�L
2018/06/10,18:50,0.869,1.255,0.879,1.599,1.119,0.474,0.837,0.798,���쓌,5.9,�L
2018/06/10,19:00,0.867,1.254,0.879,1.601,1.118,0.477,0.837,0.799,���쓌,5.9,�L
2018/06/10,19:10,0.869,1.254,0.878,1.602,1.118,0.476,0.836,0.797,���쓌,6.8,�L
2018/06/10,19:20,0.866,1.252,0.879,1.602,1.118,0.475,0.837,0.799,��,6.4,�L
2018/06/10,19:30,0.865,1.252,0.877,1.599,1.115,0.473,0.835,0.797,��,6.2,�L
2018/06/10,19:40,0.868,1.251,0.878,1.601,1.115,0.473,0.834,0.796,��,5.3,�L
2018/06/10,19:50,0.867,1.251,0.877,1.601,1.113,0.473,0.837,0.796,���쓌,4.5,�L
2018/06/10,20:00,0.867,1.250,0.876,1.600,1.110,0.474,0.831,0.796,��,4.7,�L
2018/06/10,20:10,0.865,1.248,0.876,1.597,1.105,0.472,0.833,0.796,���쓌,5.0,�L
2018/06/10,20:20,0.861,1.244,0.874,1.592,1.102,0.473,0.831,0.792,��,4.2,�L
2018/06/10,20:30,0.860,1.236,0.871,1.587,1.099,0.472,0.829,0.791,��,5.0,�L
2018/06/10,20:40,0.858,1.229,0.870,1.585,1.098,0.472,0.829,0.790,��,4.6,�L
2018/06/10,20:50,0.856,1.229,0.868,1.579,1.095,0.472,0.826,0.790,��,3.8,�L
2018/06/10,21:00,0.855,1.224,0.869,1.578,1.094,0.472,0.828,0.789,���쓌,4.4,�L
2018/06/10,21:10,0.854,1.217,0.866,1.572,1.092,0.472,0.828,0.790,��,2.5,�L
2018/06/10,21:20,0.853,1.218,0.865,1.567,1.088,0.473,0.826,0.788,��,2.0,�L
2018/06/10,21:30,0.853,1.219,0.864,1.562,1.090,0.473,0.824,0.787,�k��,1.7,�L
2018/06/10,21:40,0.852,1.215,0.863,1.563,1.085,0.472,0.822,0.789,���k��,2.0,�L
2018/06/10,21:50,0.853,1.218,0.863,1.561,1.088,0.471,0.824,0.786,�k��,2.8,�L
2018/06/10,22:00,0.853,1.213,0.863,1.556,1.087,0.470,0.824,0.786,�k��,2.3,�L
2018/06/10,22:10,0.851,1.214,0.861,1.556,1.085,0.470,0.825,0.785,�k�k��,2.0,�L
2018/06/10,22:20,0.851,1.215,0.862,1.554,1.085,0.469,0.823,0.786,�k�k��,2.0,�L
2018/06/10,22:30,0.849,1.214,0.860,1.554,1.087,0.469,0.822,0.786,�k,2.2,�L
2018/06/10,22:40,0.851,1.216,0.861,1.555,1.085,0.468,0.823,0.784,�k�k��,1.5,�L
2018/06/10,22:50,0.849,1.216,0.860,1.555,1.085,0.468,0.824,0.785,�k�k��,1.2,�L
2018/06/10,23:00,0.849,1.217,0.860,1.556,1.085,0.468,0.824,0.786,�k,1.2,�L
2018/06/10,23:10,0.851,1.218,0.860,1.555,1.085,0.468,0.822,0.788,�k,2.0,�L
2018/06/10,23:20,0.850,1.219,0.859,1.553,1.085,0.468,0.823,0.787,�k�k��,2.2,�L
2018/06/10,23:30,0.850,1.219,0.858,1.555,1.084,0.467,0.822,0.786,�k�k��,2.9,�L
2018/06/10,23:40,0.849,1.219,0.857,1.553,1.085,0.466,0.822,0.786,�k�k��,3.2,�L
2018/06/10,23:50,0.848,1.219,0.856,1.553,1.087,0.468,0.824,0.788,�k�k��,3.1,�L
